sat.trackr.live / text

‹ back to catalog

STARLINK-5082

NORAD 54845 · 2022-177AB

PAYLOAD ACTIVE UNKNOWN

§ Identity

Operator
Country
US
Launch date
2022-12-28
Launch site
AFETR
Launch vehicle
Mass (kg)
RCS (m²)

Purposes: comms

External: N2YO · Heavens-Above · Gunter

§ Orbital elements

Epoch: 2026-05-25T03:12:32.366016Z

Period
94.27 min
Inclination
43.0023°
Eccentricity
0.0000513
Mean motion
15.27587255 rev/d
Perigee alt
482.7 km
Apogee alt
483.4 km
Semi-major
6,861.2 km
B*
1.4659e-5
RAAN
61.0089°
Arg perigee
267.0152°
Mean anomaly
93.0641°
Rev number
18,865

§ Raw data

STARLINK-50821 54845U 22177AB  26145.13370794  .00000142  00000+0  14659-4 0  99922 54845  43.0023  61.0089 0000513 267.0152  93.0641 15.27587255188654

JSON: /api/v1/satellites/54845 · /tle

For live sub-satellite position, see the globe view (requires WebGL).

§ Visibility from observer

Set your observer location to see the next 7 days of passes ≥ 10°. The values pass through the URL so the page stays shareable.

No JS? Fill the form by hand. The geolocation button needs JavaScript.